�������l�o���
Date,Time,MP-1(��Sv/h),MP-2(��Sv/h),MP-3(��Sv/h),MP-4(��Sv/h),MP-5(��Sv/h),MP-6(��Sv/h),MP-7(��Sv/h),MP-8(��Sv/h),����,����(m/s),���J
2019/05/18,00:00,0.754,1.104,0.759,1.379,1.025,0.437,0.764,0.722,��쐼,5.8,��
2019/05/18,00:10,0.755,1.104,0.758,1.379,1.023,0.438,0.763,0.722,��쐼,5.4,��
2019/05/18,00:20,0.753,1.102,0.759,1.377,1.022,0.437,0.763,0.722,��쐼,4.5,��
2019/05/18,00:30,0.753,1.103,0.757,1.378,1.024,0.437,0.765,0.723,��쐼,4.7,��
2019/05/18,00:40,0.752,1.104,0.759,1.378,1.023,0.436,0.765,0.722,��,5.7,��
2019/05/18,00:50,0.755,1.100,0.759,1.379,1.022,0.438,0.764,0.722,��,5.9,��
2019/05/18,01:00,0.753,1.103,0.757,1.381,1.024,0.436,0.764,0.720,��쐼,6.6,��
2019/05/18,01:10,0.754,1.099,0.758,1.379,1.024,0.435,0.765,0.724,��쐼,6.7,��
2019/05/18,01:20,0.754,1.102,0.757,1.377,1.023,0.435,0.765,0.721,��쐼,6.1,��
2019/05/18,01:30,0.754,1.103,0.758,1.379,1.023,0.438,0.766,0.722,��쐼,6.2,��
2019/05/18,01:40,0.755,1.103,0.758,1.378,1.022,0.438,0.767,0.723,��쐼,6.7,��
2019/05/18,01:50,0.752,1.101,0.758,1.378,1.021,0.437,0.765,0.722,��쐼,7.6,��
2019/05/18,02:00,0.754,1.102,0.759,1.376,1.023,0.437,0.763,0.722,��쐼,7.8,��
2019/05/18,02:10,0.754,1.102,0.756,1.381,1.024,0.436,0.763,0.724,��쐼,7.5,��
2019/05/18,02:20,0.754,1.103,0.758,1.379,1.025,0.434,0.764,0.721,��쐼,6.5,��
2019/05/18,02:30,0.754,1.103,0.758,1.379,1.024,0.436,0.765,0.721,��쐼,6.1,��
2019/05/18,02:40,0.754,1.101,0.756,1.378,1.022,0.436,0.764,0.721,��쐼,6.6,��
2019/05/18,02:50,0.754,1.101,0.756,1.379,1.020,0.435,0.764,0.722,��쐼,5.1,��
2019/05/18,03:00,0.752,1.105,0.757,1.381,1.023,0.436,0.764,0.722,��쐼,3.2,��
2019/05/18,03:10,0.752,1.100,0.755,1.380,1.021,0.436,0.764,0.721,��쐼,2.3,��
2019/05/18,03:20,0.751,1.102,0.758,1.379,1.022,0.436,0.764,0.722,��,2.5,��
2019/05/18,03:30,0.752,1.101,0.758,1.380,1.020,0.436,0.764,0.723,��쐼,3.4,��
2019/05/18,03:40,0.754,1.100,0.760,1.376,1.022,0.435,0.763,0.723,��쐼,2.6,��
2019/05/18,03:50,0.753,1.101,0.756,1.378,1.021,0.434,0.764,0.724,��,2.3,��
2019/05/18,04:00,0.754,1.099,0.759,1.378,1.021,0.435,0.763,0.722,��쐼,3.1,��
2019/05/18,04:10,0.751,1.099,0.758,1.380,1.019,0.435,0.764,0.724,��,3.0,��
2019/05/18,04:20,0.752,1.099,0.758,1.379,1.022,0.437,0.763,0.724,��,3.7,��
2019/05/18,04:30,0.752,1.099,0.754,1.380,1.021,0.435,0.764,0.721,��,4.3,��
2019/05/18,04:40,0.753,1.101,0.757,1.377,1.021,0.434,0.764,0.722,��,3.8,��
2019/05/18,04:50,0.753,1.101,0.753,1.381,1.022,0.435,0.764,0.723,��,3.9,��
2019/05/18,05:00,0.753,1.101,0.756,1.378,1.021,0.436,0.763,0.722,��,4.8,��
2019/05/18,05:10,0.752,1.100,0.757,1.379,1.022,0.435,0.764,0.721,��,5.2,��
2019/05/18,05:20,0.753,1.102,0.756,1.380,1.021,0.435,0.765,0.723,��,5.1,��
2019/05/18,05:30,0.753,1.099,0.756,1.376,1.022,0.434,0.763,0.722,��,5.0,��
2019/05/18,05:40,0.754,1.099,0.757,1.381,1.022,0.436,0.764,0.722,��,5.3,��
2019/05/18,05:50,0.755,1.102,0.758,1.379,1.021,0.435,0.765,0.723,��,4.8,��
2019/05/18,06:00,0.753,1.101,0.758,1.380,1.023,0.435,0.764,0.723,��쐼,2.9,��
2019/05/18,06:10,0.754,1.101,0.757,1.377,1.023,0.435,0.763,0.722,��,3.7,��
2019/05/18,06:20,0.753,1.100,0.759,1.378,1.022,0.434,0.765,0.723,��,4.8,��
2019/05/18,06:30,0.754,1.102,0.756,1.379,1.020,0.435,0.766,0.723,��,5.8,��
2019/05/18,06:40,0.754,1.102,0.757,1.380,1.022,0.437,0.767,0.723,��,5.0,��
2019/05/18,06:50,0.755,1.104,0.755,1.381,1.023,0.436,0.765,0.723,��,4.7,��
2019/05/18,07:00,0.755,1.101,0.757,1.379,1.023,0.434,0.767,0.723,��,4.2,��
2019/05/18,07:10,0.753,1.099,0.758,1.379,1.023,0.435,0.766,0.724,��,5.1,��
2019/05/18,07:20,0.752,1.100,0.758,1.380,1.023,0.436,0.766,0.723,��,6.0,��
2019/05/18,07:30,0.752,1.098,0.758,1.380,1.023,0.433,0.766,0.725,��,6.3,��
2019/05/18,07:40,0.753,1.104,0.757,1.382,1.023,0.434,0.765,0.724,��,6.7,��
2019/05/18,07:50,0.753,1.102,0.757,1.381,1.022,0.434,0.766,0.725,��,7.1,��
2019/05/18,08:00,0.756,1.102,0.760,1.381,1.022,0.434,0.765,0.722,��,6.5,��
2019/05/18,08:10,0.753,1.103,0.757,1.378,1.024,0.435,0.764,0.723,��,6.4,��
2019/05/18,08:20,0.753,1.102,0.759,1.380,1.022,0.437,0.766,0.720,��쓌,7.0,��
2019/05/18,08:30,0.753,1.102,0.759,1.384,1.021,0.435,0.768,0.720,��쓌,7.1,��
2019/05/18,08:40,0.754,1.104,0.758,1.381,1.022,0.436,0.765,0.722,��쓌,9.2,��
2019/05/18,08:50,0.754,1.106,0.760,1.382,1.023,0.436,0.767,0.721,��쓌,9.9,��
2019/05/18,09:00,0.754,1.105,0.756,1.383,1.022,0.437,0.766,0.721,��쓌,10.6,��
2019/05/18,09:10,0.755,1.103,0.758,1.383,1.022,0.436,0.763,0.722,��,8.3,��
2019/05/18,09:20,0.757,1.101,0.759,1.383,1.024,0.437,0.765,0.722,��쓌,9.2,��
2019/05/18,09:30,0.755,1.103,0.756,1.384,1.025,0.438,0.765,0.723,��쓌,9.8,��
2019/05/18,09:40,0.755,1.106,0.757,1.384,1.027,0.436,0.766,0.721,��쓌,9.9,��
2019/05/18,09:50,0.756,1.110,0.757,1.384,1.027,0.437,0.765,0.722,��쓌,11.4,��
2019/05/18,10:00,0.756,1.106,0.758,1.383,1.026,0.438,0.765,0.722,��쓌,8.2,��
2019/05/18,10:10,0.754,1.106,0.757,1.382,1.025,0.437,0.764,0.722,��쓌,10.0,��
2019/05/18,10:20,0.757,1.108,0.759,1.383,1.026,0.437,0.765,0.722,��쓌,10.5,��
2019/05/18,10:30,0.755,1.108,0.758,1.384,1.027,0.437,0.765,0.721,��쓌,10.3,��
2019/05/18,10:40,0.756,1.108,0.759,1.384,1.027,0.438,0.764,0.721,��쓌,10.0,��
2019/05/18,10:50,0.755,1.110,0.760,1.382,1.025,0.437,0.766,0.721,��쓌,10.6,��
2019/05/18,11:00,0.757,1.107,0.761,1.381,1.029,0.439,0.766,0.721,��쓌,11.9,��
2019/05/18,11:10,0.757,1.108,0.758,1.384,1.030,0.438,0.765,0.722,��쓌,11.7,��
2019/05/18,11:20,0.757,1.110,0.759,1.383,1.029,0.438,0.764,0.722,��쓌,12.7,��
2019/05/18,11:30,0.758,1.108,0.760,1.380,1.029,0.437,0.765,0.721,��쓌,11.0,��
2019/05/18,11:40,0.758,1.111,0.760,1.381,1.030,0.438,0.765,0.722,��쓌,11.4,��
2019/05/18,11:50,0.757,1.111,0.760,1.383,1.029,0.437,0.765,0.722,��쓌,11.6,��
2019/05/18,12:00,0.757,1.112,0.758,1.383,1.029,0.438,0.766,0.722,��쓌,10.6,��
2019/05/18,12:10,0.759,1.111,0.760,1.382,1.030,0.439,0.765,0.723,��쓌,10.3,��
2019/05/18,12:20,0.759,1.112,0.762,1.381,1.033,0.438,0.766,0.723,��쓌,10.5,��
2019/05/18,12:30,0.760,1.112,0.760,1.385,1.032,0.438,0.766,0.722,��쓌,9.8,��
2019/05/18,12:40,0.759,1.113,0.761,1.385,1.032,0.439,0.767,0.722,��,10.7,��
2019/05/18,12:50,0.757,1.110,0.763,1.385,1.033,0.438,0.768,0.723,��쓌,11.0,��
2019/05/18,13:00,0.759,1.113,0.761,1.383,1.034,0.439,0.765,0.722,��쓌,13.5,��
2019/05/18,13:10,0.758,1.112,0.762,1.385,1.033,0.438,0.765,0.725,��쓌,12.0,��
2019/05/18,13:20,0.757,1.111,0.761,1.386,1.036,0.439,0.765,0.723,��쓌,12.4,��
2019/05/18,13:30,0.758,1.113,0.761,1.388,1.034,0.439,0.766,0.723,��쓌,12.4,��
2019/05/18,13:40,0.760,1.108,0.761,1.385,1.037,0.439,0.765,0.722,��,11.4,��
2019/05/18,13:50,0.759,1.113,0.763,1.386,1.033,0.439,0.768,0.722,��쓌,11.3,��
2019/05/18,14:00,0.759,1.115,0.762,1.383,1.032,0.438,0.766,0.723,��쓌,10.5,��
2019/05/18,14:10,0.758,1.112,0.761,1.385,1.035,0.440,0.767,0.723,��쓌,12.0,��
2019/05/18,14:20,0.758,1.114,0.762,1.385,1.035,0.438,0.767,0.722,��쓌,13.5,��
2019/05/18,14:30,0.761,1.114,0.762,1.386,1.036,0.438,0.766,0.724,��쓌,11.9,��
2019/05/18,14:40,0.760,1.113,0.762,1.388,1.035,0.440,0.767,0.722,��쓌,10.4,��
2019/05/18,14:50,0.761,1.115,0.762,1.386,1.037,0.437,0.767,0.722,��쓌,13.0,��
2019/05/18,15:00,0.761,1.114,0.762,1.388,1.034,0.438,0.765,0.722,��쓌,11.7,��
2019/05/18,15:10,0.761,1.113,0.763,1.386,1.035,0.437,0.766,0.724,��쓌,12.0,��
2019/05/18,15:20,0.760,1.117,0.763,1.385,1.036,0.440,0.767,0.725,��쓌,12.7,��
2019/05/18,15:30,0.760,1.116,0.763,1.386,1.034,0.439,0.766,0.723,��쓌,14.1,��
2019/05/18,15:40,0.762,1.115,0.763,1.385,1.036,0.439,0.766,0.723,��쓌,9.6,��
2019/05/18,15:50,0.759,1.115,0.763,1.388,1.036,0.439,0.766,0.723,��쓌,11.3,��
2019/05/18,16:00,0.760,1.115,0.762,1.389,1.035,0.439,0.764,0.723,��쓌,11.3,��
2019/05/18,16:10,0.760,1.115,0.763,1.390,1.036,0.439,0.764,0.722,��쓌,13.8,��
2019/05/18,16:20,0.761,1.116,0.762,1.390,1.037,0.439,0.766,0.722,��쓌,14.1,��
2019/05/18,16:30,0.761,1.118,0.765,1.388,1.035,0.437,0.767,0.723,��쓌,11.8,��
2019/05/18,16:40,0.763,1.115,0.763,1.386,1.036,0.437,0.765,0.722,��쓌,11.6,��
2019/05/18,16:50,0.763,1.116,0.761,1.390,1.035,0.438,0.764,0.722,��쓌,10.8,��
2019/05/18,17:00,0.764,1.115,0.764,1.389,1.035,0.438,0.765,0.724,��,10.2,��
2019/05/18,17:10,0.762,1.117,0.763,1.393,1.037,0.438,0.765,0.723,��,9.4,��
2019/05/18,17:20,0.762,1.117,0.764,1.392,1.035,0.438,0.766,0.724,��,9.8,��
2019/05/18,17:30,0.762,1.116,0.764,1.390,1.035,0.438,0.766,0.723,��,10.5,��
2019/05/18,17:40,0.763,1.116,0.762,1.391,1.034,0.438,0.766,0.723,��,9.0,��
2019/05/18,17:50,0.762,1.118,0.764,1.393,1.031,0.438,0.765,0.724,��,8.9,��
2019/05/18,18:00,0.764,1.119,0.763,1.394,1.037,0.438,0.765,0.727,��,7.8,��
2019/05/18,18:10,0.765,1.117,0.764,1.390,1.036,0.438,0.767,0.727,��,8.5,��
2019/05/18,18:20,0.765,1.118,0.766,1.392,1.035,0.439,0.766,0.726,��,8.8,��
2019/05/18,18:30,0.764,1.116,0.767,1.393,1.035,0.439,0.769,0.725,��,8.8,��
2019/05/18,18:40,0.765,1.119,0.766,1.394,1.035,0.438,0.767,0.725,��,9.3,��
2019/05/18,18:50,0.763,1.119,0.765,1.394,1.034,0.440,0.769,0.726,��,9.2,��
2019/05/18,19:00,0.766,1.118,0.767,1.392,1.035,0.439,0.766,0.727,��,8.9,��
2019/05/18,19:10,0.765,1.117,0.765,1.391,1.036,0.439,0.766,0.725,��,10.2,��
2019/05/18,19:20,0.765,1.116,0.767,1.392,1.035,0.439,0.767,0.726,��,10.3,��
2019/05/18,19:30,0.765,1.119,0.768,1.392,1.036,0.439,0.768,0.726,��,9.2,��
2019/05/18,19:40,0.764,1.117,0.767,1.392,1.037,0.439,0.768,0.727,��,8.9,��
2019/05/18,19:50,0.765,1.118,0.765,1.394,1.037,0.439,0.768,0.727,��,9.0,��
2019/05/18,20:00,0.766,1.115,0.765,1.389,1.036,0.438,0.768,0.724,��,8.4,��
2019/05/18,20:10,0.765,1.117,0.769,1.393,1.038,0.438,0.767,0.725,��,9.2,��
2019/05/18,20:20,0.765,1.119,0.768,1.394,1.036,0.437,0.767,0.725,��,8.9,��
2019/05/18,20:30,0.764,1.116,0.765,1.392,1.036,0.438,0.767,0.726,��,8.5,��
2019/05/18,20:40,0.764,1.117,0.766,1.392,1.034,0.438,0.768,0.726,��쐼,7.6,��
2019/05/18,20:50,0.764,1.117,0.768,1.392,1.037,0.439,0.766,0.727,��,10.0,��
2019/05/18,21:00,0.761,1.119,0.766,1.393,1.037,0.438,0.767,0.727,��,9.6,��
2019/05/18,21:10,0.765,1.117,0.766,1.393,1.039,0.439,0.767,0.727,��,8.9,��
2019/05/18,21:20,0.763,1.116,0.766,1.391,1.040,0.440,0.768,0.726,��,8.3,��
2019/05/18,21:30,0.765,1.116,0.768,1.392,1.036,0.439,0.768,0.726,��쐼,8.6,��
2019/05/18,21:40,0.765,1.115,0.765,1.391,1.035,0.441,0.769,0.724,��,9.8,��
2019/05/18,21:50,0.763,1.116,0.767,1.394,1.036,0.439,0.769,0.724,��,10.2,��
2019/05/18,22:00,0.763,1.116,0.768,1.395,1.036,0.439,0.769,0.725,��,9.7,��
2019/05/18,22:10,0.765,1.116,0.765,1.392,1.036,0.441,0.768,0.726,��,9.5,��
2019/05/18,22:20,0.764,1.118,0.766,1.392,1.037,0.438,0.768,0.725,��,8.8,��
2019/05/18,22:30,0.764,1.117,0.766,1.393,1.037,0.439,0.766,0.725,��,9.0,��
2019/05/18,22:40,0.765,1.118,0.764,1.391,1.037,0.439,0.767,0.725,��,8.3,��
2019/05/18,22:50,0.763,1.118,0.767,1.392,1.037,0.438,0.768,0.725,��,8.5,��
2019/05/18,23:00,0.766,1.116,0.766,1.391,1.037,0.437,0.768,0.725,��,8.2,��
2019/05/18,23:10,0.763,1.116,0.767,1.392,1.037,0.437,0.767,0.725,��,8.1,��
2019/05/18,23:20,0.763,1.117,0.763,1.392,1.039,0.439,0.766,0.725,��,7.2,��
2019/05/18,23:30,0.765,1.117,0.766,1.392,1.038,0.439,0.766,0.726,��쐼,6.0,��
2019/05/18,23:40,0.764,1.118,0.767,1.392,1.038,0.440,0.766,0.725,��쐼,6.0,��
2019/05/18,23:50,0.766,1.117,0.766,1.391,1.038,0.439,0.767,0.725,��쐼,5.5,��
